| time (UTC) | temp F | wind direction | speed knots | gust knots | rain 1hr in | rain 24hr in | rain mn in | humidity % | barometer mb |
| 20260509072559 | 37 | 302 | 0.0 | 0.0 | 0.00 | 0.00 | 0.00 | 91 | 1013.8 |
| 20260509072056 | 37 | 309 | 0.0 | 0.0 | 0.00 | 0.00 | 0.00 | 91 | 1013.9 |
| 20260509071553 | 37 | 292 | 0.0 | 0.0 | 0.00 | 0.00 | 0.00 | 91 | 1013.9 |
| 20260509071050 | 37 | 290 | 0.0 | 0.0 | 0.00 | 0.00 | 0.00 | 91 | 1013.8 |
| 20260509070548 | 37 | 317 | 0.0 | 0.0 | 0.00 | 0.00 | 0.00 | 90 | 1013.7 |
| 20260509070044 | 37 | 291 | 0.0 | 0.0 | 0.00 | 0.00 | 0.00 | 90 | 1013.8 |
| 20260509065539 | 37 | 313 | 0.0 | 0.0 | 0.00 | 0.00 | 0.00 | 90 | 1013.9 |
| 20260509065036 | 38 | 284 | 0.0 | 0.0 | 0.00 | 0.00 | 0.00 | 90 | 1013.7 |
| 20260509064533 | 37 | 300 | 0.0 | 0.0 | 0.00 | 0.00 | 0.00 | 89 | 1013.8 |
| 20260509064031 | 37 | 287 | 0.0 | 0.0 | 0.00 | 0.00 | 0.00 | 90 | 1013.8 |
| 20260509063526 | 38 | 281 | 0.0 | 0.0 | 0.00 | 0.00 | 0.00 | 90 | 1013.7 |
| 20260509063024 | 38 | 311 | 0.0 | 0.0 | 0.00 | 0.00 | 0.00 | 90 | 1013.6 |
| 20260509062521 | 38 | 279 | 0.0 | 0.0 | 0.00 | 0.00 | 0.00 | 89 | 1013.5 |
| 20260509062018 | 38 | 275 | 0.0 | 0.0 | 0.00 | 0.00 | 0.00 | 88 | 1013.3 |
| 20260509061515 | 38 | 275 | 0.0 | 0.0 | 0.00 | 0.00 | 0.00 | 88 | 1013.4 |
| 20260509061012 | 38 | 274 | 0.0 | 0.0 | 0.00 | 0.00 | 0.00 | 87 | 1013.5 |
| 20260509060510 | 38 | 289 | 0.0 | 0.0 | 0.00 | 0.00 | 0.00 | 87 | 1013.4 |
| 20260509060005 | 38 | 285 | 0.0 | 0.0 | 0.00 | 0.00 | 0.00 | 87 | 1013.4 |
| 20260509055501 | 39 | 293 | 0.0 | 0.0 | 0.00 | 0.00 | 0.00 | 87 | 1013.3 |
| 20260509054957 | 39 | 299 | 0.0 | 0.0 | 0.00 | 0.00 | 0.00 | 87 | 1013.2 |
| 20260509054454 | 38 | 291 | 0.0 | 0.0 | 0.00 | 0.00 | 0.00 | 86 | 1012.9 |
| 20260509053952 | 39 | 302 | 0.0 | 0.0 | 0.00 | 0.00 | 0.00 | 86 | 1013.2 |
| 20260509053450 | 39 | 275 | 0.0 | 0.0 | 0.00 | 0.00 | 0.00 | 87 | 1013.3 |
| 20260509052947 | 39 | 270 | 0.0 | 0.0 | 0.00 | 0.00 | 0.00 | 85 | 1013.3 |
| 20260509052444 | 39 | 286 | 0.0 | 0.0 | 0.00 | 0.00 | 0.00 | 85 | 1013.2 |
| 20260509051942 | 39 | 304 | 0.0 | 0.0 | 0.00 | 0.00 | 0.00 | 86 | 1013.3 |
| 20260509051440 | 39 | 299 | 0.0 | 0.0 | 0.00 | 0.00 | 0.00 | 86 | 1013.2 |
| 20260509050937 | 39 | 290 | 0.0 | 0.0 | 0.00 | 0.00 | 0.00 | 86 | 1013.3 |
| 20260509050433 | 39 | 290 | 0.0 | 0.0 | 0.00 | 0.00 | 0.00 | 86 | 1013.3 |
| 20260509045930 | 39 | 289 | 0.0 | 0.0 | 0.00 | 0.00 | 0.00 | 85 | 1013.2 |
| 20260509045427 | 39 | 285 | 0.0 | 0.0 | 0.00 | 0.00 | 0.00 | 85 | 1013.3 |
| 20260509044924 | 39 | 296 | 0.0 | 0.0 | 0.00 | 0.00 | 0.00 | 84 | 1013.3 |
| 20260509044422 | 39 | 297 | 0.0 | 0.0 | 0.00 | 0.00 | 0.00 | 84 | 1013.4 |
| 20260509043919 | 39 | 286 | 0.0 | 0.0 | 0.00 | 0.00 | 0.00 | 84 | 1013.6 |
| 20260509043414 | 39 | 286 | 0.0 | 0.0 | 0.00 | 0.00 | 0.00 | 84 | 1013.3 |
| 20260509042910 | 39 | 286 | 0.0 | 0.0 | 0.00 | 0.00 | 0.00 | 83 | 1013.4 |
| 20260509042407 | 39 | 289 | 0.0 | 0.0 | 0.00 | 0.00 | 0.00 | 84 | 1013.4 |
| 20260509041903 | 39 | 283 | 0.0 | 0.0 | 0.00 | 0.00 | 0.00 | 84 | 1013.3 |
| 20260509041401 | 39 | 283 | 0.0 | 0.0 | 0.00 | 0.00 | 0.00 | 82 | 1013.3 |
| 20260509040859 | 39 | 283 | 0.0 | 0.0 | 0.00 | 0.00 | 0.00 | 82 | 1013.1 |
| 20260509040356 | 39 | 284 | 0.0 | 0.0 | 0.00 | 0.00 | 0.00 | 83 | 1013.0 |
| 20260509035853 | 40 | 284 | 0.0 | 0.0 | 0.00 | 0.00 | 0.00 | 83 | 1013.0 |
| 20260509035350 | 40 | 284 | 0.0 | 0.0 | 0.00 | 0.00 | 0.00 | 82 | 1012.9 |
| 20260509034846 | 40 | 286 | 0.0 | 0.0 | 0.00 | 0.00 | 0.00 | 83 | 1012.7 |
| 20260509034344 | 40 | 301 | 0.0 | 0.0 | 0.00 | 0.00 | 0.00 | 83 | 1012.8 |
| 20260509033841 | 40 | 306 | 0.0 | 0.0 | 0.00 | 0.00 | 0.00 | 82 | 1012.5 |
| 20260509033338 | 40 | 302 | 0.0 | 0.0 | 0.00 | 0.00 | 0.00 | 83 | 1012.6 |
| 20260509032835 | 39 | 290 | 0.0 | 0.0 | 0.00 | 0.00 | 0.00 | 84 | 1012.7 |
| 20260509032332 | 39 | 275 | 0.0 | 0.0 | 0.00 | 0.00 | 0.00 | 83 | 1012.5 |
| 20260509031830 | 39 | 290 | 0.0 | 0.0 | 0.00 | 0.00 | 0.00 | 83 | 1012.6 |
| 20260509031327 | 39 | 289 | 0.0 | 0.0 | 0.00 | 0.00 | 0.00 | 83 | 1012.4 |
| 20260509030825 | 39 | 275 | 0.0 | 0.0 | 0.00 | 0.00 | 0.00 | 82 | 1012.4 |
| 20260509030322 | 39 | 275 | 0.0 | 0.0 | 0.00 | 0.00 | 0.00 | 82 | 1012.4 |
| 20260509025819 | 39 | 275 | 0.0 | 0.0 | 0.00 | 0.00 | 0.00 | 81 | 1012.5 |
| 20260509025314 | 39 | 289 | 0.0 | 0.0 | 0.00 | 0.00 | 0.00 | 83 | 1012.4 |
| 20260509024810 | 39 | 290 | 0.0 | 0.0 | 0.00 | 0.00 | 0.00 | 82 | 1012.3 |
| 20260509024306 | 38 | 286 | 0.0 | 0.0 | 0.00 | 0.00 | 0.00 | 82 | 1012.2 |
| 20260509023803 | 38 | 287 | 0.0 | 0.0 | 0.00 | 0.00 | 0.00 | 82 | 1012.3 |
| 20260509023301 | 38 | 287 | 0.0 | 0.0 | 0.00 | 0.00 | 0.00 | 82 | 1012.4 |
| 20260509022757 | 38 | 299 | 0.0 | 0.0 | 0.00 | 0.00 | 0.00 | 82 | 1012.2 |
| 20260509022255 | 38 | 298 | 0.0 | 0.0 | 0.00 | 0.00 | 0.00 | 82 | 1012.1 |
| 20260509021751 | 37 | 282 | 0.0 | 0.0 | 0.00 | 0.00 | 0.00 | 83 | 1012.3 |
| 20260509021249 | 37 | 284 | 0.0 | 0.0 | 0.00 | 0.00 | 0.00 | 82 | 1012.2 |
| 20260509020746 | 37 | 287 | 0.0 | 0.0 | 0.00 | 0.00 | 0.00 | 82 | 1011.9 |
| 20260509020244 | 37 | 293 | 0.0 | 0.0 | 0.00 | 0.00 | 0.00 | 82 | 1012.0 |
| 20260509015741 | 38 | 287 | 0.0 | 0.0 | 0.00 | 0.00 | 0.00 | 82 | 1011.9 |
| 20260509015239 | 38 | 286 | 0.0 | 0.0 | 0.00 | 0.00 | 0.00 | 80 | 1011.5 |
| 20260509014735 | 38 | 298 | 0.0 | 0.0 | 0.00 | 0.00 | 0.00 | 80 | 1011.6 |
| 20260509014233 | 38 | 285 | 0.0 | 0.0 | 0.00 | 0.00 | 0.00 | 79 | 1011.7 |
| 20260509013729 | 39 | 275 | 0.0 | 0.0 | 0.00 | 0.00 | 0.00 | 79 | 1011.5 |
| 20260509013224 | 39 | 280 | 0.0 | 0.0 | 0.00 | 0.00 | 0.00 | 78 | 1011.4 |
| 20260509012722 | 40 | 287 | 0.0 | 0.0 | 0.00 | 0.00 | 0.00 | 76 | 1011.3 |
| 20260509012218 | 40 | 297 | 0.0 | 0.0 | 0.00 | 0.00 | 0.00 | 75 | 1011.1 |
| 20260509011716 | 40 | 284 | 0.0 | 0.0 | 0.00 | 0.00 | 0.00 | 75 | 1011.2 |
| 20260509011214 | 40 | 282 | 0.0 | 0.0 | 0.00 | 0.00 | 0.00 | 73 | 1011.1 |
| 20260509010711 | 41 | 285 | 0.0 | 0.0 | 0.00 | 0.00 | 0.00 | 73 | 1011.1 |
| 20260509010207 | 41 | 301 | 0.0 | 0.0 | 0.00 | 0.00 | 0.00 | 71 | 1011.0 |
| 20260509005705 | 42 | 299 | 0.0 | 0.0 | 0.00 | 0.00 | 0.00 | 72 | 1010.8 |
| 20260509005201 | 42 | 302 | 0.0 | 0.0 | 0.00 | 0.00 | 0.00 | 70 | 1010.8 |
| 20260509004656 | 43 | 282 | 0.0 | 0.0 | 0.00 | 0.00 | 0.00 | 68 | 1010.8 |
| 20260509004154 | 44 | 279 | 0.0 | 0.0 | 0.00 | 0.00 | 0.00 | 67 | 1010.4 |
| 20260509003653 | 45 | 274 | 0.0 | 0.0 | 0.00 | 0.00 | 0.00 | 66 | 1010.5 |
| 20260509003150 | 45 | 284 | 0.0 | 0.0 | 0.00 | 0.00 | 0.00 | 63 | 1010.4 |
| 20260509002647 | 45 | 279 | 0.0 | 0.0 | 0.00 | 0.00 | 0.00 | 61 | 1010.1 |
| 20260509002144 | 46 | 276 | 0.0 | 0.0 | 0.00 | 0.00 | 0.00 | 59 | 1010.1 |
| 20260509001642 | 47 | 287 | 0.0 | 0.0 | 0.00 | 0.00 | 0.00 | 57 | 1010.0 |
| 20260509001137 | 48 | 284 | 0.0 | 0.0 | 0.00 | 0.00 | 0.00 | 54 | 1010.1 |
| 20260509000636 | 49 | 279 | 0.0 | 0.0 | 0.00 | 0.00 | 0.00 | 51 | 1010.1 |
| 20260509000132 | 50 | 292 | 0.0 | 0.0 | 0.00 | 0.00 | 0.00 | 50 | 1010.0 |
| 20260508235629 | 50 | 254 | 0.0 | 0.9 | 0.00 | 0.00 | 0.00 | 48 | 1010.0 |
| 20260508235126 | 50 | 288 | 0.0 | 0.0 | 0.00 | 0.00 | 0.00 | 49 | 1009.8 |
| 20260508234623 | 50 | 324 | 0.0 | 0.0 | 0.00 | 0.00 | 0.00 | 48 | 1009.8 |
| 20260508234119 | 51 | 280 | 0.0 | 0.0 | 0.00 | 0.00 | 0.00 | 48 | 1009.5 |
| 20260508233619 | 51 | 275 | 0.0 | 0.0 | 0.00 | 0.00 | 0.00 | 48 | 1009.6 |
| 20260508233116 | 52 | 287 | 0.0 | 0.0 | 0.00 | 0.00 | 0.00 | 45 | 1009.5 |
| 20260508232613 | 53 | 287 | 0.9 | 1.7 | 0.00 | 0.00 | 0.00 | 44 | 1009.4 |
| 20260508232109 | 53 | 236 | 0.9 | 1.7 | 0.00 | 0.00 | 0.00 | 44 | 1009.4 |
| 20260508231607 | 54 | 315 | 0.0 | 0.9 | 0.00 | 0.00 | 0.00 | 43 | 1009.5 |
| 20260508231104 | 54 | 278 | 0.0 | 0.9 | 0.00 | 0.00 | 0.00 | 43 | 1009.4 |
| 20260508230601 | 54 | 357 | 0.9 | 0.9 | 0.00 | 0.00 | 0.00 | 43 | 1009.3 |
| 20260508230057 | 54 | 247 | 1.7 | 2.6 | 0.00 | 0.00 | 0.00 | 42 | 1009.3 |
| 20260508225555 | 53 | 276 | 0.0 | 0.0 | 0.00 | 0.00 | 0.00 | 44 | 1009.2 |
| 20260508225051 | 53 | 241 | 0.0 | 0.0 | 0.00 | 0.00 | 0.00 | 43 | 1009.3 |
| 20260508224550 | 53 | 307 | 1.7 | 2.6 | 0.00 | 0.00 | 0.00 | 44 | 1009.4 |
| 20260508224046 | 53 | 15 | 0.0 | 0.9 | 0.00 | 0.00 | 0.00 | 45 | 1009.0 |
| 20260508223544 | 53 | 344 | 0.9 | 0.9 | 0.00 | 0.00 | 0.00 | 44 | 1009.3 |
| 20260508223041 | 53 | 276 | 0.0 | 0.0 | 0.00 | 0.00 | 0.00 | 45 | 1009.2 |
| 20260508222539 | 54 | 227 | 2.6 | 2.6 | 0.00 | 0.00 | 0.00 | 44 | 1009.0 |
| 20260508222035 | 54 | 300 | 0.0 | 0.0 | 0.00 | 0.00 | 0.00 | 45 | 1009.0 |
| 20260508221532 | 56 | 357 | 3.5 | 5.2 | 0.00 | 0.00 | 0.00 | 42 | 1009.1 |
| 20260508221027 | 55 | 319 | 0.0 | 0.9 | 0.00 | 0.00 | 0.00 | 45 | 1009.0 |
| 20260508220524 | 54 | 266 | 1.7 | 1.7 | 0.00 | 0.00 | 0.00 | 44 | 1008.9 |
| 20260508220021 | 53 | 290 | 0.9 | 1.7 | 0.00 | 0.00 | 0.00 | 45 | 1008.8 |
| 20260508215518 | 54 | 249 | 0.0 | 0.9 | 0.00 | 0.00 | 0.00 | 44 | 1008.9 |
| 20260508215014 | 56 | 270 | 0.9 | 1.7 | 0.00 | 0.00 | 0.00 | 42 | 1008.8 |
| 20260508214512 | 56 | 239 | 3.5 | 3.5 | 0.00 | 0.00 | 0.00 | 43 | 1008.9 |
| 20260508214008 | 55 | 258 | 2.6 | 3.5 | 0.00 | 0.00 | 0.00 | 43 | 1008.8 |
| 20260508213506 | 55 | 33 | 1.7 | 2.6 | 0.00 | 0.00 | 0.00 | 43 | 1008.9 |
| 20260508213001 | 55 | 230 | 1.7 | 2.6 | 0.00 | 0.00 | 0.00 | 44 | 1008.9 |
| 20260508212458 | 56 | 5 | 2.6 | 3.5 | 0.00 | 0.00 | 0.00 | 43 | 1008.9 |
| 20260508211954 | 56 | 179 | 1.7 | 2.6 | 0.00 | 0.00 | 0.00 | 45 | 1008.6 |
| 20260508211449 | 55 | 276 | 2.6 | 5.2 | 0.00 | 0.00 | 0.00 | 45 | 1008.7 |
| 20260508210946 | 55 | 62 | 1.7 | 2.6 | 0.00 | 0.00 | 0.00 | 47 | 1008.7 |
| 20260508210443 | 54 | 213 | 2.6 | 3.5 | 0.00 | 0.00 | 0.00 | 46 | 1008.7 |
| 20260508205939 | 55 | 299 | 2.6 | 2.6 | 0.00 | 0.00 | 0.00 | 45 | 1008.7 |
| 20260508205437 | 55 | 14 | 2.6 | 8.7 | 0.00 | 0.00 | 0.00 | 46 | 1008.6 |
| 20260508204933 | 54 | 209 | 3.5 | 5.2 | 0.00 | 0.00 | 0.00 | 45 | 1008.5 |
| 20260508204430 | 54 | 27 | 0.9 | 0.9 | 0.00 | 0.00 | 0.00 | 47 | 1008.4 |
| 20260508203925 | 55 | 215 | 2.6 | 6.1 | 0.00 | 0.00 | 0.00 | 46 | 1008.6 |
| 20260508203422 | 55 | 245 | 3.5 | 3.5 | 0.00 | 0.00 | 0.00 | 47 | 1008.4 |
| 20260508202918 | 56 | 264 | 4.3 | 8.7 | 0.00 | 0.00 | 0.00 | 44 | 1008.4 |
| 20260508202415 | 56 | 222 | 2.6 | 2.6 | 0.00 | 0.00 | 0.00 | 45 | 1008.2 |
| 20260508201907 | 56 | 248 | 3.5 | 5.2 | 0.00 | 0.00 | 0.00 | 45 | 1008.3 |
| 20260508201403 | 55 | 241 | 1.7 | 2.6 | 0.00 | 0.00 | 0.00 | 47 | 1008.4 |
| 20260508200900 | 55 | 265 | 1.7 | 2.6 | 0.00 | 0.00 | 0.00 | 45 | 1008.1 |
| 20260508200357 | 55 | 184 | 0.9 | 0.9 | 0.00 | 0.00 | 0.00 | 47 | 1008.2 |
| 20260508195852 | 55 | 293 | 2.6 | 3.5 | 0.00 | 0.00 | 0.00 | 46 | 1008.1 |
| 20260508195349 | 54 | 274 | 2.6 | 2.6 | 0.00 | 0.00 | 0.00 | 44 | 1008.2 |
| 20260508194846 | 54 | 251 | 4.3 | 7.0 | 0.00 | 0.00 | 0.00 | 44 | 1007.9 |
| 20260508194343 | 54 | 247 | 5.2 | 9.6 | 0.00 | 0.00 | 0.00 | 43 | 1007.8 |
| 20260508193839 | 54 | 282 | 6.1 | 8.7 | 0.00 | 0.00 | 0.00 | 44 | 1007.9 |
| 20260508193336 | 54 | 263 | 2.6 | 3.5 | 0.00 | 0.00 | 0.00 | 45 | 1007.9 |
| 20260508192832 | 54 | 298 | 2.6 | 3.5 | 0.00 | 0.00 | 0.00 | 45 | 1007.9 |
| 20260508192330 | 55 | 290 | 3.5 | 6.1 | 0.00 | 0.00 | 0.00 | 45 | 1007.9 |
| 20260508191827 | 55 | 275 | 2.6 | 3.5 | 0.00 | 0.00 | 0.00 | 45 | 1007.7 |
| 20260508191324 | 55 | 280 | 9.6 | 13.0 | 0.00 | 0.00 | 0.00 | 43 | 1007.7 |
| 20260508190821 | 55 | 218 | 1.7 | 2.6 | 0.00 | 0.00 | 0.00 | 43 | 1007.8 |
| 20260508190318 | 56 | 290 | 3.5 | 3.5 | 0.00 | 0.00 | 0.00 | 43 | 1007.5 |
| 20260508185814 | 57 | 237 | 5.2 | 8.7 | 0.00 | 0.00 | 0.00 | 41 | 1007.4 |
| 20260508185312 | 56 | 86 | 1.7 | 2.6 | 0.00 | 0.00 | 0.00 | 42 | 1007.5 |
| 20260508184809 | 56 | 235 | 3.5 | 5.2 | 0.00 | 0.00 | 0.00 | 42 | 1007.2 |
| 20260508184305 | 57 | 289 | 4.3 | 7.0 | 0.00 | 0.00 | 0.00 | 43 | 1007.3 |
| 20260508183757 | 57 | 313 | 2.6 | 6.1 | 0.00 | 0.00 | 0.00 | 41 | 1007.4 |
| 20260508183253 | 57 | 85 | 1.7 | 2.6 | 0.00 | 0.00 | 0.00 | 43 | 1007.4 |
| 20260508182749 | 57 | 322 | 0.9 | 0.9 | 0.00 | 0.00 | 0.00 | 44 | 1007.4 |
| 20260508182246 | 56 | 325 | 0.9 | 1.7 | 0.00 | 0.00 | 0.00 | 43 | 1007.5 |
| 20260508181742 | 56 | 310 | 2.6 | 3.5 | 0.00 | 0.00 | 0.00 | 43 | 1007.3 |
| 20260508181239 | 56 | 292 | 3.5 | 5.2 | 0.00 | 0.00 | 0.00 | 42 | 1007.5 |
| 20260508180735 | 56 | 255 | 3.5 | 5.2 | 0.00 | 0.00 | 0.00 | 42 | 1007.4 |
| 20260508180232 | 55 | 288 | 0.9 | 1.7 | 0.00 | 0.00 | 0.00 | 46 | 1007.4 |
| 20260508175729 | 56 | 283 | 0.0 | 0.9 | 0.00 | 0.00 | 0.00 | 45 | 1007.2 |
| 20260508175226 | 55 | 234 | 4.3 | 5.2 | 0.00 | 0.00 | 0.00 | 45 | 1007.5 |
| 20260508174724 | 56 | 223 | 0.0 | 0.9 | 0.00 | 0.00 | 0.00 | 42 | 1007.4 |
| 20260508174221 | 57 | 300 | 0.9 | 0.9 | 0.00 | 0.00 | 0.00 | 45 | 1007.3 |
| 20260508173716 | 59 | 10 | 4.3 | 6.1 | 0.00 | 0.00 | 0.00 | 45 | 1007.2 |
| 20260508173213 | 57 | 220 | 3.5 | 3.5 | 0.00 | 0.00 | 0.00 | 45 | 1007.4 |
| 20260508172710 | 57 | 208 | 1.7 | 1.7 | 0.00 | 0.00 | 0.00 | 44 | 1007.4 |
| 20260508172207 | 55 | 250 | 0.9 | 0.9 | 0.00 | 0.00 | 0.00 | 53 | 1007.5 |
| 20260508171703 | 54 | 284 | 3.5 | 5.2 | 0.00 | 0.00 | 0.00 | 47 | 1007.5 |
| 20260508171159 | 54 | 332 | 1.7 | 1.7 | 0.00 | 0.00 | 0.00 | 48 | 1007.3 |
| 20260508170657 | 54 | 43 | 1.7 | 1.7 | 0.00 | 0.00 | 0.00 | 48 | 1007.5 |
| 20260508170155 | 55 | 52 | 2.6 | 3.5 | 0.00 | 0.00 | 0.00 | 46 | 1007.4 |
| 20260508165651 | 56 | 40 | 2.6 | 3.5 | 0.00 | 0.00 | 0.00 | 45 | 1007.3 |
| 20260508165148 | 57 | 318 | 1.7 | 2.6 | 0.00 | 0.00 | 0.00 | 47 | 1007.5 |
| 20260508164645 | 55 | 252 | 0.0 | 0.0 | 0.00 | 0.00 | 0.00 | 49 | 1007.5 |
| 20260508164141 | 54 | 288 | 0.0 | 0.9 | 0.00 | 0.00 | 0.00 | 46 | 1007.5 |
| 20260508163639 | 55 | 14 | 1.7 | 2.6 | 0.00 | 0.00 | 0.00 | 47 | 1007.7 |
| 20260508163136 | 55 | 304 | 2.6 | 3.5 | 0.00 | 0.00 | 0.00 | 44 | 1007.5 |
| 20260508162632 | 55 | 226 | 0.9 | 1.7 | 0.00 | 0.00 | 0.00 | 46 | 1007.6 |
| 20260508162130 | 55 | 228 | 0.0 | 0.9 | 0.00 | 0.00 | 0.00 | 46 | 1007.4 |
| 20260508161626 | 55 | 214 | 0.9 | 0.9 | 0.00 | 0.00 | 0.00 | 44 | 1007.4 |
| 20260508161123 | 54 | 339 | 0.9 | 1.7 | 0.00 | 0.00 | 0.00 | 45 | 1007.5 |
| 20260508160621 | 54 | 308 | 0.9 | 0.9 | 0.00 | 0.00 | 0.00 | 46 | 1007.5 |
| 20260508160119 | 54 | 252 | 2.6 | 2.6 | 0.00 | 0.00 | 0.00 | 44 | 1007.7 |
| 20260508155610 | 54 | 345 | 1.7 | 1.7 | 0.00 | 0.00 | 0.00 | 43 | 1007.5 |
| 20260508155107 | 54 | 266 | 0.9 | 1.7 | 0.00 | 0.00 | 0.00 | 45 | 1007.4 |
| 20260508154604 | 54 | 4 | 1.7 | 1.7 | 0.00 | 0.00 | 0.00 | 44 | 1007.7 |
| 20260508154101 | 55 | 331 | 1.7 | 2.6 | 0.00 | 0.00 | 0.00 | 43 | 1007.6 |
| 20260508153558 | 55 | 348 | 3.5 | 5.2 | 0.00 | 0.00 | 0.00 | 42 | 1007.6 |
| 20260508153054 | 56 | 294 | 0.9 | 0.9 | 0.00 | 0.00 | 0.00 | 42 | 1007.5 |
| 20260508152552 | 56 | 357 | 1.7 | 1.7 | 0.00 | 0.00 | 0.00 | 44 | 1007.8 |
| 20260508152046 | 56 | 258 | 0.9 | 1.7 | 0.00 | 0.00 | 0.00 | 44 | 1007.8 |
| 20260508151543 | 57 | 57 | 0.9 | 1.7 | 0.00 | 0.00 | 0.00 | 45 | 1007.7 |
| 20260508151040 | 56 | 256 | 0.9 | 0.9 | 0.00 | 0.00 | 0.00 | 44 | 1007.7 |
| 20260508150538 | 56 | 16 | 1.7 | 1.7 | 0.00 | 0.00 | 0.00 | 43 | 1007.7 |
| 20260508150033 | 56 | 273 | 0.0 | 0.9 | 0.00 | 0.00 | 0.00 | 41 | 1007.6 |
| 20260508145530 | 55 | 237 | 3.5 | 3.5 | 0.00 | 0.00 | 0.00 | 44 | 1007.8 |
| 20260508145026 | 55 | 311 | 3.5 | 3.5 | 0.00 | 0.00 | 0.00 | 43 | 1007.7 |
| 20260508144524 | 55 | 306 | 0.0 | 0.0 | 0.00 | 0.00 | 0.00 | 44 | 1008.0 |
| 20260508144021 | 54 | 306 | 2.6 | 5.2 | 0.00 | 0.00 | 0.00 | 48 | 1008.0 |
| 20260508143519 | 54 | 270 | 1.7 | 2.6 | 0.00 | 0.00 | 0.00 | 48 | 1007.8 |
| 20260508143015 | 56 | 16 | 3.5 | 6.1 | 0.00 | 0.00 | 0.00 | 45 | 1007.8 |
| 20260508142512 | 57 | 305 | 1.7 | 2.6 | 0.00 | 0.00 | 0.00 | 43 | 1007.8 |
| 20260508142009 | 55 | 229 | 0.9 | 0.9 | 0.00 | 0.00 | 0.00 | 51 | 1008.0 |
| 20260508141505 | 56 | 338 | 2.6 | 3.5 | 0.00 | 0.00 | 0.00 | 44 | 1008.1 |
| 20260508141003 | 56 | 228 | 3.5 | 3.5 | 0.00 | 0.00 | 0.00 | 46 | 1008.2 |
| 20260508140500 | 55 | 292 | 1.7 | 1.7 | 0.00 | 0.00 | 0.00 | 48 | 1008.0 |
| 20260508135955 | 56 | 29 | 1.7 | 1.7 | 0.00 | 0.00 | 0.00 | 46 | 1008.1 |
| 20260508135452 | 56 | 20 | 2.6 | 5.2 | 0.00 | 0.00 | 0.00 | 48 | 1008.2 |
| 20260508134949 | 55 | 357 | 0.9 | 1.7 | 0.00 | 0.00 | 0.00 | 50 | 1008.3 |
| 20260508134445 | 55 | 96 | 0.9 | 0.9 | 0.00 | 0.00 | 0.00 | 48 | 1008.3 |
| 20260508133942 | 54 | 217 | 0.9 | 1.7 | 0.00 | 0.00 | 0.00 | 49 | 1008.5 |
| 20260508133440 | 54 | 261 | 4.3 | 6.1 | 0.00 | 0.00 | 0.00 | 51 | 1008.5 |
| 20260508132936 | 54 | 258 | 3.5 | 5.2 | 0.00 | 0.00 | 0.00 | 50 | 1008.3 |
| 20260508132434 | 54 | 290 | 1.7 | 1.7 | 0.00 | 0.00 | 0.00 | 49 | 1008.6 |
| 20260508131931 | 54 | 197 | 1.7 | 1.7 | 0.00 | 0.00 | 0.00 | 49 | 1008.5 |
| 20260508131426 | 53 | 206 | 0.0 | 0.0 | 0.00 | 0.00 | 0.00 | 54 | 1008.4 |
| 20260508130923 | 54 | 217 | 0.9 | 1.7 | 0.00 | 0.00 | 0.00 | 52 | 1008.5 |
| 20260508130420 | 53 | 239 | 3.5 | 3.5 | 0.00 | 0.00 | 0.00 | 52 | 1008.4 |
| 20260508125916 | 53 | 225 | 2.6 | 3.5 | 0.00 | 0.00 | 0.00 | 53 | 1008.5 |
| 20260508125412 | 55 | 292 | 1.7 | 1.7 | 0.00 | 0.00 | 0.00 | 51 | 1008.4 |
| 20260508124910 | 54 | 235 | 0.0 | 0.9 | 0.00 | 0.00 | 0.00 | 52 | 1008.6 |
| 20260508124408 | 53 | 208 | 0.0 | 0.0 | 0.00 | 0.00 | 0.00 | 51 | 1008.6 |
| 20260508123905 | 52 | 266 | 1.7 | 1.7 | 0.00 | 0.00 | 0.00 | 53 | 1008.4 |
| 20260508123404 | 52 | 265 | 1.7 | 1.7 | 0.00 | 0.00 | 0.00 | 55 | 1008.5 |
| 20260508122859 | 52 | 222 | 2.6 | 3.5 | 0.00 | 0.00 | 0.00 | 54 | 1008.6 |
| 20260508122357 | 51 | 285 | 1.7 | 1.7 | 0.00 | 0.00 | 0.00 | 54 | 1008.5 |
| 20260508121854 | 51 | 312 | 0.9 | 1.7 | 0.00 | 0.00 | 0.00 | 54 | 1008.5 |
| 20260508121352 | 51 | 292 | 2.6 | 2.6 | 0.00 | 0.00 | 0.00 | 53 | 1008.4 |
| 20260508120849 | 50 | 283 | 0.9 | 1.7 | 0.00 | 0.00 | 0.00 | 58 | 1008.3 |
| 20260508120347 | 50 | 226 | 3.5 | 3.5 | 0.00 | 0.00 | 0.00 | 54 | 1008.3 |
| 20260508115844 | 49 | 225 | 1.7 | 1.7 | 0.00 | 0.00 | 0.00 | 58 | 1008.4 |
| 20260508115342 | 49 | 309 | 1.7 | 1.7 | 0.00 | 0.00 | 0.00 | 60 | 1008.6 |
| 20260508114838 | 49 | 219 | 2.6 | 2.6 | 0.00 | 0.00 | 0.00 | 59 | 1008.5 |
| 20260508114335 | 48 | 292 | 0.9 | 1.7 | 0.00 | 0.00 | 0.00 | 63 | 1008.5 |
| 20260508113832 | 48 | 232 | 0.9 | 0.9 | 0.00 | 0.00 | 0.00 | 62 | 1008.5 |
| 20260508113330 | 47 | 266 | 0.0 | 0.9 | 0.00 | 0.00 | 0.00 | 65 | 1008.4 |
| 20260508112826 | 47 | 285 | 0.9 | 0.9 | 0.00 | 0.00 | 0.00 | 64 | 1008.5 |
| 20260508112324 | 47 | 284 | 0.0 | 0.0 | 0.00 | 0.00 | 0.00 | 70 | 1008.5 |
| 20260508111820 | 47 | 204 | 0.9 | 0.9 | 0.00 | 0.00 | 0.00 | 67 | 1008.5 |
| 20260508111317 | 48 | 277 | 0.0 | 0.0 | 0.00 | 0.00 | 0.00 | 68 | 1008.4 |
| 20260508110815 | 47 | 284 | 0.0 | 0.0 | 0.00 | 0.00 | 0.00 | 68 | 1008.4 |
| 20260508110312 | 45 | 286 | 0.0 | 0.0 | 0.00 | 0.00 | 0.00 | 70 | 1008.4 |
| 20260508105811 | 43 | 287 | 0.0 | 0.0 | 0.00 | 0.00 | 0.00 | 78 | 1008.4 |
| 20260508105308 | 42 | 292 | 0.0 | 0.0 | 0.00 | 0.00 | 0.00 | 83 | 1008.5 |
| 20260508104805 | 40 | 292 | 0.0 | 0.0 | 0.00 | 0.00 | 0.00 | 82 | 1008.4 |
| 20260508104302 | 40 | 272 | 0.0 | 0.0 | 0.00 | 0.00 | 0.00 | 85 | 1008.4 |
| 20260508103800 | 38 | 277 | 0.0 | 0.0 | 0.00 | 0.00 | 0.00 | 88 | 1008.5 |
| 20260508103256 | 38 | 276 | 0.0 | 0.0 | 0.00 | 0.00 | 0.00 | 87 | 1008.4 |
| 20260508102754 | 37 | 304 | 0.0 | 0.0 | 0.00 | 0.00 | 0.00 | 90 | 1008.2 |
| 20260508102252 | 35 | 311 | 0.0 | 0.0 | 0.00 | 0.00 | 0.00 | 92 | 1008.2 |
| 20260508101749 | 35 | 327 | 0.0 | 0.0 | 0.00 | 0.00 | 0.00 | 94 | 1008.2 |
| 20260508101246 | 34 | 311 | 0.0 | 0.0 | 0.00 | 0.00 | 0.00 | 96 | 1008.0 |
| 20260508100744 | 32 | 319 | 0.0 | 0.0 | 0.00 | 0.00 | 0.00 | 96 | 1008.2 |
| 20260508100241 | 32 | 294 | 0.0 | 0.0 | 0.00 | 0.00 | 0.00 | 96 | 1008.0 |
| 20260508095737 | 32 | 87 | 0.0 | 0.0 | 0.00 | 0.00 | 0.00 | 96 | 1007.9 |
| 20260508095235 | 32 | 293 | 0.0 | 0.0 | 0.00 | 0.00 | 0.00 | 96 | 1007.9 |
| 20260508094732 | 33 | 298 | 0.0 | 0.0 | 0.00 | 0.00 | 0.00 | 96 | 1007.7 |
| 20260508094229 | 33 | 309 | 0.0 | 0.0 | 0.00 | 0.00 | 0.00 | 96 | 1007.7 |
| 20260508093726 | 33 | 291 | 0.0 | 0.0 | 0.00 | 0.00 | 0.00 | 96 | 1007.7 |
| 20260508093224 | 33 | 283 | 0.0 | 0.0 | 0.00 | 0.00 | 0.00 | 96 | 1007.7 |
| 20260508092720 | 33 | 281 | 0.0 | 0.0 | 0.00 | 0.00 | 0.00 | 96 | 1007.8 |
| 20260508092219 | 33 | 281 | 0.0 | 0.0 | 0.00 | 0.00 | 0.00 | 96 | 1007.5 |
| 20260508091716 | 32 | 283 | 0.0 | 0.0 | 0.00 | 0.00 | 0.00 | 95 | 1007.6 |
| 20260508091213 | 32 | 271 | 0.0 | 0.0 | 0.00 | 0.00 | 0.00 | 95 | 1007.2 |
| 20260508090711 | 32 | 288 | 0.0 | 0.0 | 0.00 | 0.00 | 0.00 | 94 | 1007.3 |
| 20260508090208 | 32 | 299 | 0.0 | 0.0 | 0.00 | 0.00 | 0.00 | 94 | 1007.2 |
| 20260508085704 | 32 | 300 | 0.0 | 0.0 | 0.00 | 0.00 | 0.00 | 94 | 1007.1 |
| 20260508085201 | 32 | 312 | 0.0 | 0.0 | 0.00 | 0.00 | 0.00 | 94 | 1007.2 |
| 20260508084657 | 33 | 311 | 0.0 | 0.0 | 0.00 | 0.00 | 0.00 | 94 | 1007.0 |
| 20260508084155 | 33 | 300 | 0.0 | 0.0 | 0.00 | 0.00 | 0.00 | 94 | 1007.0 |
| 20260508083652 | 33 | 286 | 0.0 | 0.0 | 0.00 | 0.00 | 0.00 | 94 | 1007.1 |
| 20260508083150 | 33 | 286 | 0.0 | 0.0 | 0.00 | 0.00 | 0.00 | 94 | 1007.0 |
| 20260508082644 | 33 | 286 | 0.0 | 0.0 | 0.00 | 0.00 | 0.00 | 93 | 1006.9 |
| 20260508082141 | 33 | 286 | 0.0 | 0.0 | 0.00 | 0.00 | 0.00 | 92 | 1007.0 |
| 20260508081634 | 34 | 286 | 0.0 | 0.0 | 0.00 | 0.00 | 0.00 | 92 | 1006.9 |
| 20260508081130 | 33 | 287 | 0.0 | 0.0 | 0.00 | 0.00 | 0.00 | 92 | 1007.0 |
| 20260508080627 | 33 | 278 | 0.0 | 0.0 | 0.00 | 0.00 | 0.00 | 92 | 1006.9 |
| 20260508080126 | 34 | 298 | 0.0 | 0.0 | 0.00 | 0.00 | 0.00 | 92 | 1006.9 |
| 20260508075621 | 34 | 318 | 0.0 | 0.0 | 0.00 | 0.00 | 0.00 | 92 | 1006.8 |
| 20260508075119 | 34 | 337 | 0.0 | 0.0 | 0.00 | 0.00 | 0.00 | 92 | 1006.6 |
| 20260508074616 | 34 | 331 | 0.0 | 0.0 | 0.00 | 0.00 | 0.00 | 90 | 1006.7 |
| 20260508074113 | 34 | 285 | 0.0 | 0.0 | 0.00 | 0.00 | 0.00 | 90 | 1006.4 |
| 20260508073611 | 35 | 330 | 0.0 | 0.0 | 0.00 | 0.00 | 0.00 | 90 | 1006.4 |
| 20260508073108 | 35 | 290 | 0.0 | 0.0 | 0.00 | 0.00 | 0.00 | 89 | 1006.4 |